This demonstration page uses our WeatherBlox Daily Observations layout. Learn more.

Left ArrowRight Arrow

Hourly Observations for April 29, 2022

Temp ( °F °C ) Dew Point ( °F °C ) Humidity (%) Winds ( mph kmh ) Pressure ( in mb ) Visibility ( mi km ) Precip ( " mm )
12:52 am 00:52 Cloudy 60 15.6 48 8.9 65 65 SE 14 22 29.87 1011 10 16 0.00 0.00
1:52 am 01:52 Partly Cloudy 59 15 47 8.3 64 64 SE 15 24 29.86 1011 10 16 0.00 0.00
2:52 am 02:52 Clear 58 14.4 46 7.8 65 65 SSE 13 20 29.84 1011 10 16 0.00 0.00
3:52 am 03:52 Partly Cloudy 57 13.9 46 7.8 67 67 SE 14 22 29.83 1010 10 16 0.00 0.00
4:52 am 04:52 Cloudy 58 14.4 46 7.8 65 65 SE 14 22 29.82 1010 10 16 0.00 0.00
5:52 am 05:52 Mostly Clear 58 14.4 46 7.8 65 65 SSE 16 26 29.80 1009 10 16 0.00 0.00
6:52 am 06:52 Sunny 59 15 47 8.3 64 64 SSE 14 22 29.80 1009 10 16 0.00 0.00
7:52 am 07:52 Cloudy 62 16.7 48 8.9 60 60 SSE 14 22 29.80 1009 10 16 0.00 0.00
8:52 am 08:52 Partly Cloudy 63 17.2 50 10 63 63 SSE 13 20 29.79 1009 10 16 0.00 0.00
9:52 am 09:52 Mostly Cloudy 66 18.9 53 11.7 63 63 S 14 22 29.78 1008 10 16 0.00 0.00
10:52 am 10:52 Mostly Cloudy 70 21.1 56 13.3 61 61 SSE 20 31 29.75 1007 10 16 0.00 0.00
11:52 am 11:52 Cloudy 73 22.8 55 12.8 53 53 S 22 35 29.72 1007 10 16 0.00 0.00
12:52 pm 12:52 Cloudy 75 23.9 54 12.2 48 48 S 23 37 29.71 1006 10 16 0.00 0.00
1:52 pm 13:52 Mostly Cloudy 78 25.6 56 13.3 47 47 S 16 26 29.69 1005 10 16 0.00 0.00
2:52 pm 14:52 Mostly Cloudy 78 25.6 56 13.3 47 47 S 21 33 29.67 1005 10 16 0.00 0.00
3:52 pm 15:52 Partly Cloudy 80 26.7 57 13.9 45 45 S 26 43 29.64 1004 10 16 0.00 0.00
4:52 pm 16:52 Mostly Sunny 80 26.7 58 14.4 47 47 SSW 21 33 29.64 1004 10 16 0.00 0.00
5:52 pm 17:52 Sunny 79 26.1 57 13.9 47 47 S 23 37 29.63 1003 10 16 0.00 0.00
6:52 pm 18:52 Sunny 76 24.4 56 13.3 50 50 S 16 26 29.63 1003 10 16 0.00 0.00
7:52 pm 19:52 Mostly Cloudy 74 23.3 56 13.3 54 54 S 12 19 29.64 1004 10 16 0.00 0.00
8:52 pm 20:52 Cloudy 74 23.3 56 13.3 54 54 S 15 24 29.64 1004 10 16 0.00 0.00
9:52 pm 21:52 Mostly Cloudy 74 23.3 56 13.3 54 54 SSE 21 33 29.61 1003 10 16 0.00 0.00
10:52 pm 22:52 Mostly Clear 73 22.8 56 13.3 55 55 SSE 17 28 29.61 1003 10 16 0.00 0.00
11:52 pm 23:52 Clear 71 21.7 56 13.3 59 59 S 22 35 29.60 1002 10 16 0.00 0.00

Powered by AerisWeather